Year,Month,Day,Hour,Minute,Value (Times are PST for temperature in C)
2019,04,01,00,00,9.30
2019,04,01,00,01,9.30
2019,04,01,00,02,9.30
2019,04,01,00,03,9.30
2019,04,01,00,04,9.30
2019,04,01,00,05,9.30
2019,04,01,00,06,9.30
2019,04,01,00,07,9.30
2019,04,01,00,08,9.20
2019,04,01,00,09,9.20
2019,04,01,00,10,9.20
2019,04,01,00,11,9.20
2019,04,01,00,12,9.10
2019,04,01,00,13,9.10
2019,04,01,00,14,9.10
2019,04,01,00,15,9.10
2019,04,01,00,16,9.00
2019,04,01,00,17,9.00
2019,04,01,00,18,9.00
2019,04,01,00,19,8.90
2019,04,01,00,20,8.90
2019,04,01,00,21,8.80
2019,04,01,00,22,8.80
2019,04,01,00,23,8.70
2019,04,01,00,24,8.60
2019,04,01,00,25,8.60
2019,04,01,00,26,8.60
2019,04,01,00,27,8.60
2019,04,01,00,28,8.50
2019,04,01,00,29,8.50
2019,04,01,00,30,8.40
2019,04,01,00,31,8.40
2019,04,01,00,32,8.30
2019,04,01,00,33,8.30
2019,04,01,00,34,8.20
2019,04,01,00,35,8.20
2019,04,01,00,36,8.10
2019,04,01,00,37,8.10
2019,04,01,00,38,8.10
2019,04,01,00,39,8.00
2019,04,01,00,40,8.00
2019,04,01,00,41,7.90
2019,04,01,00,42,7.90
2019,04,01,00,43,7.90
2019,04,01,00,44,7.80
2019,04,01,00,45,7.80
2019,04,01,00,46,7.80
2019,04,01,00,47,7.80
2019,04,01,00,48,7.80
2019,04,01,00,49,7.80
2019,04,01,00,50,7.80
2019,04,01,00,51,7.80
2019,04,01,00,52,7.80
2019,04,01,00,53,7.90
2019,04,01,00,54,7.90
2019,04,01,00,55,8.00
2019,04,01,00,56,8.00
2019,04,01,00,57,8.10
2019,04,01,00,58,8.10
2019,04,01,00,59,8.10
2019,04,01,01,00,8.10
2019,04,01,01,01,8.20
2019,04,01,01,02,8.20
2019,04,01,01,03,8.20
2019,04,01,01,04,8.20
2019,04,01,01,05,8.20
2019,04,01,01,06,8.20
2019,04,01,01,07,8.20
2019,04,01,01,08,8.20
2019,04,01,01,09,8.20
2019,04,01,01,10,8.20
2019,04,01,01,11,8.20
2019,04,01,01,12,8.20
2019,04,01,01,13,8.20
2019,04,01,01,14,8.20
2019,04,01,01,15,8.10
2019,04,01,01,16,8.10
2019,04,01,01,17,8.10
2019,04,01,01,18,8.10
2019,04,01,01,19,8.00
2019,04,01,01,20,8.00
2019,04,01,01,21,8.00
2019,04,01,01,22,7.90
2019,04,01,01,23,7.90
2019,04,01,01,24,7.90
2019,04,01,01,25,7.90
2019,04,01,01,26,7.90
2019,04,01,01,27,7.80
2019,04,01,01,28,7.80
2019,04,01,01,29,7.80
2019,04,01,01,30,7.80
2019,04,01,01,31,7.70
2019,04,01,01,32,7.70
2019,04,01,01,33,7.70
2019,04,01,01,34,7.60
2019,04,01,01,35,7.60
2019,04,01,01,36,7.60
2019,04,01,01,37,7.60
2019,04,01,01,38,7.60
2019,04,01,01,39,7.60
2019,04,01,01,40,7.60
2019,04,01,01,41,7.70
2019,04,01,01,42,7.70
2019,04,01,01,43,7.70
2019,04,01,01,44,7.80
2019,04,01,01,45,7.80
2019,04,01,01,46,7.80
2019,04,01,01,47,7.70
2019,04,01,01,48,7.70
2019,04,01,01,49,7.70
2019,04,01,01,50,7.70
2019,04,01,01,51,7.60
2019,04,01,01,52,7.60
2019,04,01,01,53,7.50
2019,04,01,01,54,7.50
2019,04,01,01,55,7.30
2019,04,01,01,56,7.20
2019,04,01,01,57,7.20
2019,04,01,01,58,7.10
2019,04,01,01,59,6.90
2019,04,01,02,00,6.80
2019,04,01,02,01,6.70
2019,04,01,02,02,6.60
2019,04,01,02,03,6.60
2019,04,01,02,04,6.50
2019,04,01,02,05,6.40
2019,04,01,02,06,6.40
2019,04,01,02,07,6.30
2019,04,01,02,08,6.20
2019,04,01,02,09,6.20
2019,04,01,02,10,6.20
2019,04,01,02,11,6.10
2019,04,01,02,12,6.10
2019,04,01,02,13,6.10
2019,04,01,02,14,6.10
2019,04,01,02,15,6.10
2019,04,01,02,16,6.10
2019,04,01,02,17,6.10
2019,04,01,02,18,6.10
2019,04,01,02,19,6.10
2019,04,01,02,20,6.00
2019,04,01,02,21,6.00
2019,04,01,02,22,5.90
2019,04,01,02,23,5.90
2019,04,01,02,24,5.80
2019,04,01,02,25,5.80
2019,04,01,02,26,5.70
2019,04,01,02,27,5.60
2019,04,01,02,28,5.50
2019,04,01,02,29,5.50
2019,04,01,02,30,5.40
2019,04,01,02,31,5.30
2019,04,01,02,32,5.20
2019,04,01,02,33,5.10
2019,04,01,02,34,5.10
2019,04,01,02,35,5.10
2019,04,01,02,36,5.00
2019,04,01,02,37,5.00
2019,04,01,02,38,4.90
2019,04,01,02,39,4.90
2019,04,01,02,40,4.90
2019,04,01,02,41,4.80
2019,04,01,02,42,4.80
2019,04,01,02,43,4.80
2019,04,01,02,44,4.80
2019,04,01,02,45,4.80
2019,04,01,02,46,4.80
2019,04,01,02,47,4.90
2019,04,01,02,48,4.90
2019,04,01,02,49,5.00
2019,04,01,02,50,5.10
2019,04,01,02,51,5.10
2019,04,01,02,52,5.20
2019,04,01,02,53,5.20
2019,04,01,02,54,5.30
2019,04,01,02,55,5.30
2019,04,01,02,56,5.30
2019,04,01,02,57,5.30
2019,04,01,02,58,5.30
2019,04,01,02,59,5.30
2019,04,01,03,00,5.40
2019,04,01,03,01,5.40
2019,04,01,03,02,5.40
2019,04,01,03,03,5.50
2019,04,01,03,04,5.50
2019,04,01,03,05,5.60
2019,04,01,03,06,5.60
2019,04,01,03,07,5.70
2019,04,01,03,08,5.70
2019,04,01,03,09,5.70
2019,04,01,03,10,5.60
2019,04,01,03,11,5.60
2019,04,01,03,12,5.60
2019,04,01,03,13,5.60
2019,04,01,03,14,5.60
2019,04,01,03,15,5.70
2019,04,01,03,16,5.70
2019,04,01,03,17,5.80
2019,04,01,03,18,5.80
2019,04,01,03,19,5.90
2019,04,01,03,20,5.90
2019,04,01,03,21,6.00
2019,04,01,03,22,6.00
2019,04,01,03,23,6.10
2019,04,01,03,24,6.10
2019,04,01,03,25,6.10
2019,04,01,03,26,6.20
2019,04,01,03,27,6.20
2019,04,01,03,28,6.20
2019,04,01,03,29,6.30
2019,04,01,03,30,6.30
2019,04,01,03,31,6.30
2019,04,01,03,32,6.40
2019,04,01,03,33,6.40
2019,04,01,03,34,6.40
2019,04,01,03,35,6.50
2019,04,01,03,36,6.50
2019,04,01,03,37,6.50
2019,04,01,03,38,6.50
2019,04,01,03,39,6.50
2019,04,01,03,40,6.50
2019,04,01,03,41,6.40
2019,04,01,03,42,6.40
2019,04,01,03,43,6.40
2019,04,01,03,44,6.30
2019,04,01,03,45,6.30
2019,04,01,03,46,6.30
2019,04,01,03,47,6.20
2019,04,01,03,48,6.20
2019,04,01,03,49,6.10
2019,04,01,03,50,6.10
2019,04,01,03,51,6.10
2019,04,01,03,52,6.00
2019,04,01,03,53,6.00
2019,04,01,03,54,6.00
2019,04,01,03,55,6.00
2019,04,01,03,56,5.90
2019,04,01,03,57,5.90
2019,04,01,03,58,5.90
2019,04,01,03,59,5.90
2019,04,01,04,00,5.90
2019,04,01,04,01,5.90
2019,04,01,04,02,5.90
2019,04,01,04,03,5.80
2019,04,01,04,04,5.80
2019,04,01,04,05,5.80
2019,04,01,04,06,5.80
2019,04,01,04,07,5.70
2019,04,01,04,08,5.70
2019,04,01,04,09,5.70
2019,04,01,04,10,5.70
2019,04,01,04,11,5.80
2019,04,01,04,12,5.80
2019,04,01,04,13,5.80
2019,04,01,04,14,5.80
2019,04,01,04,15,5.80
2019,04,01,04,16,5.80
2019,04,01,04,17,5.80
2019,04,01,04,18,5.70
2019,04,01,04,19,5.60
2019,04,01,04,20,5.60
2019,04,01,04,21,5.50
2019,04,01,04,22,5.40
2019,04,01,04,23,5.30
2019,04,01,04,24,5.30
2019,04,01,04,25,5.30
2019,04,01,04,26,5.20
2019,04,01,04,27,5.20
2019,04,01,04,28,5.20
2019,04,01,04,29,5.20
2019,04,01,04,30,5.20
2019,04,01,04,31,5.20
2019,04,01,04,32,5.10
2019,04,01,04,33,5.10
2019,04,01,04,34,5.10
2019,04,01,04,35,5.10
2019,04,01,04,36,5.10
2019,04,01,04,37,5.10
2019,04,01,04,38,5.10
2019,04,01,04,39,5.10
2019,04,01,04,40,5.10
2019,04,01,04,41,5.10
2019,04,01,04,42,5.10
2019,04,01,04,43,5.10
2019,04,01,04,44,5.10
2019,04,01,04,45,5.20
2019,04,01,04,46,5.20
2019,04,01,04,47,5.30
2019,04,01,04,48,5.40
2019,04,01,04,49,5.40
2019,04,01,04,50,5.50
2019,04,01,04,51,5.60
2019,04,01,04,52,5.60
2019,04,01,04,53,5.70
2019,04,01,04,54,5.70
2019,04,01,04,55,5.70
2019,04,01,04,56,5.80
2019,04,01,04,57,5.80
2019,04,01,04,58,5.80
2019,04,01,04,59,5.80
2019,04,01,05,00,5.80
2019,04,01,05,01,5.90
2019,04,01,05,02,5.90
2019,04,01,05,03,5.90
2019,04,01,05,04,5.90
2019,04,01,05,05,5.90
2019,04,01,05,06,5.90
2019,04,01,05,07,5.90
2019,04,01,05,08,6.00
2019,04,01,05,09,6.00
2019,04,01,05,10,6.00
2019,04,01,05,11,6.00
2019,04,01,05,12,5.90
2019,04,01,05,13,5.90
2019,04,01,05,14,5.90
2019,04,01,05,15,5.90
2019,04,01,05,16,5.80
2019,04,01,05,17,5.80
2019,04,01,05,18,5.80
2019,04,01,05,19,5.70
2019,04,01,05,20,5.70
2019,04,01,05,21,5.70
2019,04,01,05,22,5.70
2019,04,01,05,23,5.70
2019,04,01,05,24,5.60
2019,04,01,05,25,5.60
2019,04,01,05,26,5.60
2019,04,01,05,27,5.60
2019,04,01,05,28,5.60
2019,04,01,05,29,5.60
2019,04,01,05,30,5.60
2019,04,01,05,31,5.60
2019,04,01,05,32,5.60
2019,04,01,05,33,5.60
2019,04,01,05,34,5.60
2019,04,01,05,35,5.60
2019,04,01,05,36,5.60
2019,04,01,05,37,5.60
2019,04,01,05,38,5.60
2019,04,01,05,39,5.60
2019,04,01,05,40,5.60
2019,04,01,05,41,5.50
2019,04,01,05,42,5.50
2019,04,01,05,43,5.40
2019,04,01,05,44,5.40
2019,04,01,05,45,5.40
2019,04,01,05,46,5.40
2019,04,01,05,47,5.40
2019,04,01,05,48,5.40
2019,04,01,05,49,5.30
2019,04,01,05,50,5.30
2019,04,01,05,51,5.30
2019,04,01,05,52,5.20
2019,04,01,05,53,5.20
2019,04,01,05,54,5.10
2019,04,01,05,55,5.10
2019,04,01,05,56,5.10
2019,04,01,05,57,5.00
2019,04,01,05,58,5.00
2019,04,01,05,59,5.00
2019,04,01,06,00,5.00
2019,04,01,06,01,5.10
2019,04,01,06,02,5.00
2019,04,01,06,03,5.00
2019,04,01,06,04,5.00
2019,04,01,06,05,4.90
2019,04,01,06,06,4.90
2019,04,01,06,07,4.90
2019,04,01,06,08,4.90
2019,04,01,06,09,4.90
2019,04,01,06,10,4.90
2019,04,01,06,11,4.90
2019,04,01,06,12,4.90
2019,04,01,06,13,4.90
2019,04,01,06,14,4.90
2019,04,01,06,15,4.80
2019,04,01,06,16,4.80
2019,04,01,06,17,4.80
2019,04,01,06,18,4.80
2019,04,01,06,19,4.80
2019,04,01,06,20,4.80
2019,04,01,06,21,4.80
2019,04,01,06,22,4.70
2019,04,01,06,23,4.70
2019,04,01,06,24,4.80
2019,04,01,06,25,4.80
2019,04,01,06,26,4.80
2019,04,01,06,27,4.80
2019,04,01,06,28,4.90
2019,04,01,06,29,4.90
2019,04,01,06,30,5.00
2019,04,01,06,31,5.00
2019,04,01,06,32,5.00
2019,04,01,06,33,5.10
2019,04,01,06,34,5.10
2019,04,01,06,35,5.10
2019,04,01,06,36,5.10
2019,04,01,06,37,5.10
2019,04,01,06,38,5.10
2019,04,01,06,39,5.20
2019,04,01,06,40,5.20
2019,04,01,06,41,5.20
2019,04,01,06,42,5.30
2019,04,01,06,43,5.30
2019,04,01,06,44,5.30
2019,04,01,06,45,5.30
2019,04,01,06,46,5.30
2019,04,01,06,47,5.30
2019,04,01,06,48,5.30
2019,04,01,06,49,5.30
2019,04,01,06,50,5.30
2019,04,01,06,51,5.30
2019,04,01,06,52,5.40
2019,04,01,06,53,5.40
2019,04,01,06,54,5.40
2019,04,01,06,55,5.40
2019,04,01,06,56,5.40
2019,04,01,06,57,5.40
2019,04,01,06,58,5.40
2019,04,01,06,59,5.40
2019,04,01,07,00,5.40
2019,04,01,07,01,5.40
2019,04,01,07,02,5.50
2019,04,01,07,03,5.50
2019,04,01,07,04,5.50
2019,04,01,07,05,5.60
2019,04,01,07,06,5.60
2019,04,01,07,07,5.60
2019,04,01,07,08,5.60
2019,04,01,07,09,5.70
2019,04,01,07,10,5.70
2019,04,01,07,11,5.70
2019,04,01,07,12,5.70
2019,04,01,07,13,5.80
2019,04,01,07,14,5.80
2019,04,01,07,15,5.80
2019,04,01,07,16,5.80
2019,04,01,07,17,5.80
2019,04,01,07,18,5.90
2019,04,01,07,19,5.90
2019,04,01,07,20,5.90
2019,04,01,07,21,5.90
2019,04,01,07,22,5.90
2019,04,01,07,23,5.90
2019,04,01,07,24,5.90
2019,04,01,07,25,5.90
2019,04,01,07,26,5.90
2019,04,01,07,27,5.90
2019,04,01,07,28,5.90
2019,04,01,07,29,6.00
2019,04,01,07,30,6.00
2019,04,01,07,31,6.00
2019,04,01,07,32,6.00
2019,04,01,07,33,6.00
2019,04,01,07,34,6.00
2019,04,01,07,35,6.00
2019,04,01,07,36,6.00
2019,04,01,07,37,6.10
2019,04,01,07,38,6.10
2019,04,01,07,39,6.10
2019,04,01,07,40,6.20
2019,04,01,07,41,6.20
2019,04,01,07,42,6.20
2019,04,01,07,43,6.20
2019,04,01,07,44,6.20
2019,04,01,07,45,6.20
2019,04,01,07,46,6.30
2019,04,01,07,47,6.30
2019,04,01,07,48,6.30
2019,04,01,07,49,6.40
2019,04,01,07,50,6.40
2019,04,01,07,51,6.40
2019,04,01,07,52,6.50
2019,04,01,07,53,6.60
2019,04,01,07,54,6.60
2019,04,01,07,55,6.70
2019,04,01,07,56,6.80
2019,04,01,07,57,6.80
2019,04,01,07,58,6.90
2019,04,01,07,59,6.90
2019,04,01,08,00,7.00
2019,04,01,08,01,7.10
2019,04,01,08,02,7.20
2019,04,01,08,03,7.20
2019,04,01,08,04,7.30
2019,04,01,08,05,7.40
2019,04,01,08,06,7.50
2019,04,01,08,07,7.70
2019,04,01,08,08,7.80
2019,04,01,08,09,7.90
2019,04,01,08,10,8.10
2019,04,01,08,11,8.20
2019,04,01,08,12,8.30
2019,04,01,08,13,8.50
2019,04,01,08,14,8.60
2019,04,01,08,15,8.80
2019,04,01,08,16,8.90
2019,04,01,08,17,9.10
2019,04,01,08,18,9.30
2019,04,01,08,19,9.50
2019,04,01,08,20,9.70
2019,04,01,08,21,9.80
2019,04,01,08,22,9.90
2019,04,01,08,23,10.10
2019,04,01,08,24,10.20
2019,04,01,08,25,10.20
2019,04,01,08,26,10.30
2019,04,01,08,27,10.40
2019,04,01,08,28,10.50
2019,04,01,08,29,10.60
2019,04,01,08,30,10.70
2019,04,01,08,31,10.80
2019,04,01,08,32,10.80
2019,04,01,08,33,10.90
2019,04,01,08,34,10.90
2019,04,01,08,35,10.90
2019,04,01,08,36,11.00
2019,04,01,08,37,11.10
2019,04,01,08,38,11.10
2019,04,01,08,39,11.10
2019,04,01,08,40,11.10
2019,04,01,08,41,11.10
2019,04,01,08,42,11.10
2019,04,01,08,43,11.10
2019,04,01,08,44,11.20
2019,04,01,08,45,11.20
2019,04,01,08,46,11.30
2019,04,01,08,47,11.40
2019,04,01,08,48,11.50
2019,04,01,08,49,11.50
2019,04,01,08,50,11.60
2019,04,01,08,51,11.60
2019,04,01,08,52,11.70
2019,04,01,08,53,11.70
2019,04,01,08,54,11.70
2019,04,01,08,55,11.80
2019,04,01,08,56,11.80
2019,04,01,08,57,11.80
2019,04,01,08,58,11.90
2019,04,01,08,59,11.90
2019,04,01,09,00,12.00
2019,04,01,09,01,12.00
2019,04,01,09,02,12.10
2019,04,01,09,03,12.20
2019,04,01,09,04,12.30
2019,04,01,09,05,12.40
2019,04,01,09,06,12.40
2019,04,01,09,07,12.50
2019,04,01,09,08,12.60
2019,04,01,09,09,12.60
2019,04,01,09,10,12.60
2019,04,01,09,11,12.50
2019,04,01,09,12,12.50
2019,04,01,09,13,12.40
2019,04,01,09,14,12.40
2019,04,01,09,15,12.30
2019,04,01,09,16,12.30
2019,04,01,09,17,12.30
2019,04,01,09,18,12.30
2019,04,01,09,19,12.30
2019,04,01,09,20,12.30
2019,04,01,09,21,12.40
2019,04,01,09,22,12.40
2019,04,01,09,23,12.40
2019,04,01,09,24,12.40
2019,04,01,09,25,12.40
2019,04,01,09,26,12.50
2019,04,01,09,27,12.60
2019,04,01,09,28,12.60
2019,04,01,09,29,12.70
2019,04,01,09,30,12.70
2019,04,01,09,31,12.70
2019,04,01,09,32,12.80
2019,04,01,09,33,12.80
2019,04,01,09,34,12.80
2019,04,01,09,35,12.80
2019,04,01,09,36,12.80
2019,04,01,09,37,12.90
2019,04,01,09,38,12.90
2019,04,01,09,39,12.90
2019,04,01,09,40,13.00
2019,04,01,09,41,13.10
2019,04,01,09,42,13.10
2019,04,01,09,43,13.10
2019,04,01,09,44,13.20
2019,04,01,09,45,13.30
2019,04,01,09,46,13.30
2019,04,01,09,47,13.30
2019,04,01,09,48,13.30
2019,04,01,09,49,13.30
2019,04,01,09,50,13.30
2019,04,01,09,51,13.30
2019,04,01,09,52,13.30
2019,04,01,09,53,13.30
2019,04,01,09,54,13.30
2019,04,01,09,55,13.40
2019,04,01,09,56,13.40
2019,04,01,09,57,13.40
2019,04,01,09,58,13.50
2019,04,01,09,59,13.60
2019,04,01,10,00,13.50
2019,04,01,10,01,13.50
2019,04,01,10,02,13.40
2019,04,01,10,03,13.40
2019,04,01,10,04,13.40
2019,04,01,10,05,13.40
2019,04,01,10,06,13.40
2019,04,01,10,07,13.50
2019,04,01,10,08,13.50
2019,04,01,10,09,13.60
2019,04,01,10,10,13.50
2019,04,01,10,11,13.50
2019,04,01,10,12,13.50
2019,04,01,10,13,13.40
2019,04,01,10,14,13.40
2019,04,01,10,15,13.40
2019,04,01,10,16,13.40
2019,04,01,10,17,13.40
2019,04,01,10,18,13.50
2019,04,01,10,19,13.50
2019,04,01,10,20,13.60
2019,04,01,10,21,13.60
2019,04,01,10,22,13.70
2019,04,01,10,23,13.70
2019,04,01,10,24,13.70
2019,04,01,10,25,13.70
2019,04,01,10,26,13.70
2019,04,01,10,27,13.80
2019,04,01,10,28,13.80
2019,04,01,10,29,13.90
2019,04,01,10,30,13.90
2019,04,01,10,31,14.00
2019,04,01,10,32,14.00
2019,04,01,10,33,14.00
2019,04,01,10,34,13.90
2019,04,01,10,35,13.90
2019,04,01,10,36,13.90
2019,04,01,10,37,13.90
2019,04,01,10,38,13.90
2019,04,01,10,39,13.90
2019,04,01,10,40,13.90
2019,04,01,10,41,13.90
2019,04,01,10,42,13.90
2019,04,01,10,43,14.00
2019,04,01,10,44,14.10
2019,04,01,10,45,14.10
2019,04,01,10,46,14.10
2019,04,01,10,47,14.10
2019,04,01,10,48,14.00
2019,04,01,10,49,14.00
2019,04,01,10,50,14.10
2019,04,01,10,51,14.10
2019,04,01,10,52,14.20
2019,04,01,10,53,14.20
2019,04,01,10,54,14.30
2019,04,01,10,55,14.30
2019,04,01,10,56,14.40
2019,04,01,10,57,14.40
2019,04,01,10,58,14.50
2019,04,01,10,59,14.50
2019,04,01,11,00,14.60
2019,04,01,11,01,14.70
2019,04,01,11,02,14.70
2019,04,01,11,03,14.80
2019,04,01,11,04,14.80
2019,04,01,11,05,14.80
2019,04,01,11,06,14.90
2019,04,01,11,07,14.90
2019,04,01,11,08,14.80
2019,04,01,11,09,14.80
2019,04,01,11,10,14.70
2019,04,01,11,11,14.70
2019,04,01,11,12,14.60
2019,04,01,11,13,14.60
2019,04,01,11,14,14.60
2019,04,01,11,15,14.60
2019,04,01,11,16,14.60
2019,04,01,11,17,14.60
2019,04,01,11,18,14.60
2019,04,01,11,19,14.70
2019,04,01,11,20,14.70
2019,04,01,11,21,14.70
2019,04,01,11,22,14.70
2019,04,01,11,23,14.80
2019,04,01,11,24,14.80
2019,04,01,11,25,14.80
2019,04,01,11,26,14.80
2019,04,01,11,27,14.80
2019,04,01,11,28,14.80
2019,04,01,11,29,14.80
2019,04,01,11,30,14.70
2019,04,01,11,31,14.80
2019,04,01,11,32,14.90
2019,04,01,11,33,15.00
2019,04,01,11,34,15.00
2019,04,01,11,35,15.00
2019,04,01,11,36,15.00
2019,04,01,11,37,15.00
2019,04,01,11,38,15.00
2019,04,01,11,39,15.00
2019,04,01,11,40,15.00
2019,04,01,11,41,15.00
2019,04,01,11,42,15.00
2019,04,01,11,43,15.00
2019,04,01,11,44,15.00
2019,04,01,11,45,15.00
2019,04,01,11,46,15.00
2019,04,01,11,47,15.00
2019,04,01,11,48,15.10
2019,04,01,11,49,15.20
2019,04,01,11,50,15.30
2019,04,01,11,51,15.40
2019,04,01,11,52,15.40
2019,04,01,11,53,15.40
2019,04,01,11,54,15.40
2019,04,01,11,55,15.40
2019,04,01,11,56,15.50
2019,04,01,11,57,15.50
2019,04,01,11,58,15.50
2019,04,01,11,59,15.60
2019,04,01,12,00,15.50
2019,04,01,12,01,15.40
2019,04,01,12,02,15.40
2019,04,01,12,03,15.40
2019,04,01,12,04,15.30
2019,04,01,12,05,15.30
2019,04,01,12,06,15.30
2019,04,01,12,07,15.20
2019,04,01,12,08,15.20
2019,04,01,12,09,15.20
2019,04,01,12,10,15.20
2019,04,01,12,11,15.20
2019,04,01,12,12,15.20
2019,04,01,12,13,15.20
2019,04,01,12,14,15.20
2019,04,01,12,15,15.20
2019,04,01,12,16,15.20
2019,04,01,12,17,15.20
2019,04,01,12,18,15.20
2019,04,01,12,19,15.20
2019,04,01,12,20,15.20
2019,04,01,12,21,15.20
2019,04,01,12,22,15.20
2019,04,01,12,23,15.20
2019,04,01,12,24,15.20
2019,04,01,12,25,15.30
2019,04,01,12,26,15.30
2019,04,01,12,27,15.30
2019,04,01,12,28,15.30
2019,04,01,12,29,15.20
2019,04,01,12,30,15.10
2019,04,01,12,31,15.00
2019,04,01,12,32,15.00
2019,04,01,12,33,15.00
2019,04,01,12,34,15.00
2019,04,01,12,35,15.00
2019,04,01,12,36,15.00
2019,04,01,12,37,15.00
2019,04,01,12,38,15.00
2019,04,01,12,39,15.00
2019,04,01,12,40,15.00
2019,04,01,12,41,15.00
2019,04,01,12,42,15.00
2019,04,01,12,43,15.00
2019,04,01,12,44,15.00
2019,04,01,12,45,15.00
2019,04,01,12,46,15.00
2019,04,01,12,47,15.00
2019,04,01,12,48,15.00
2019,04,01,12,49,15.00
2019,04,01,12,50,15.00
2019,04,01,12,51,15.00
2019,04,01,12,52,15.00
2019,04,01,12,53,15.00
2019,04,01,12,54,15.00
2019,04,01,12,55,15.00
2019,04,01,12,56,14.90
2019,04,01,12,57,14.80
2019,04,01,12,58,14.80
2019,04,01,12,59,14.70
2019,04,01,13,00,14.70
2019,04,01,13,01,14.70
2019,04,01,13,02,14.70
2019,04,01,13,03,14.70
2019,04,01,13,04,14.70
2019,04,01,13,05,14.70
2019,04,01,13,06,14.80
2019,04,01,13,07,14.80
2019,04,01,13,08,14.80
2019,04,01,13,09,14.80
2019,04,01,13,10,14.90
2019,04,01,13,11,14.90
2019,04,01,13,12,15.00
2019,04,01,13,13,15.00
2019,04,01,13,14,15.00
2019,04,01,13,15,15.00
2019,04,01,13,16,15.00
2019,04,01,13,17,15.00
2019,04,01,13,18,15.00
2019,04,01,13,19,15.00
2019,04,01,13,20,15.00
2019,04,01,13,21,15.00
2019,04,01,13,22,15.00
2019,04,01,13,23,15.00
2019,04,01,13,24,15.00
2019,04,01,13,25,15.00
2019,04,01,13,26,15.00
2019,04,01,13,27,15.00
2019,04,01,13,28,15.20
2019,04,01,13,29,15.30
2019,04,01,13,30,15.30
2019,04,01,13,31,15.40
2019,04,01,13,32,15.40
2019,04,01,13,33,15.50
2019,04,01,13,34,15.60
2019,04,01,13,35,15.60
2019,04,01,13,36,15.70
2019,04,01,13,37,15.70
2019,04,01,13,38,15.70
2019,04,01,13,39,15.60
2019,04,01,13,40,15.60
2019,04,01,13,41,15.50
2019,04,01,13,42,15.50
2019,04,01,13,43,15.50
2019,04,01,13,44,15.50
2019,04,01,13,45,15.50
2019,04,01,13,46,15.50
2019,04,01,13,47,15.60
2019,04,01,13,48,15.60
2019,04,01,13,49,15.60
2019,04,01,13,50,15.60
2019,04,01,13,51,15.60
2019,04,01,13,52,15.60
2019,04,01,13,53,15.60
2019,04,01,13,54,15.60
2019,04,01,13,55,15.60
2019,04,01,13,56,15.60
2019,04,01,13,57,15.70
2019,04,01,13,58,15.70
2019,04,01,13,59,15.80
2019,04,01,14,00,15.90
2019,04,01,14,01,15.90
2019,04,01,14,02,15.90
2019,04,01,14,03,15.90
2019,04,01,14,04,15.90
2019,04,01,14,05,16.00
2019,04,01,14,06,16.00
2019,04,01,14,07,16.00
2019,04,01,14,08,16.00
2019,04,01,14,09,16.10
2019,04,01,14,10,16.10
2019,04,01,14,11,16.10
2019,04,01,14,12,16.20
2019,04,01,14,13,16.20
2019,04,01,14,14,16.30
2019,04,01,14,15,16.30
2019,04,01,14,16,16.40
2019,04,01,14,17,16.40
2019,04,01,14,18,16.50
2019,04,01,14,19,16.50
2019,04,01,14,20,16.50
2019,04,01,14,21,16.50
2019,04,01,14,22,16.50
2019,04,01,14,23,16.40
2019,04,01,14,24,16.40
2019,04,01,14,25,16.40
2019,04,01,14,26,16.40
2019,04,01,14,27,16.40
2019,04,01,14,28,16.40
2019,04,01,14,29,16.40
2019,04,01,14,30,16.50
2019,04,01,14,31,16.60
2019,04,01,14,32,16.60
2019,04,01,14,33,16.60
2019,04,01,14,34,16.70
2019,04,01,14,35,16.70
2019,04,01,14,36,16.70
2019,04,01,14,37,16.70
2019,04,01,14,38,16.80
2019,04,01,14,39,16.80
2019,04,01,14,40,16.80
2019,04,01,14,41,16.80
2019,04,01,14,42,16.80
2019,04,01,14,43,16.80
2019,04,01,14,44,16.80
2019,04,01,14,45,16.80
2019,04,01,14,46,16.70
2019,04,01,14,47,16.70
2019,04,01,14,48,16.70
2019,04,01,14,49,16.70
2019,04,01,14,50,16.70
2019,04,01,14,51,16.60
2019,04,01,14,52,16.60
2019,04,01,14,53,16.60
2019,04,01,14,54,16.50
2019,04,01,14,55,16.50
2019,04,01,14,56,16.50
2019,04,01,14,57,16.50
2019,04,01,14,58,16.60
2019,04,01,14,59,16.60
2019,04,01,15,00,16.60
2019,04,01,15,01,16.60
2019,04,01,15,02,16.70
2019,04,01,15,03,16.80
2019,04,01,15,04,16.80
2019,04,01,15,05,16.80
2019,04,01,15,06,16.80
2019,04,01,15,07,16.80
2019,04,01,15,08,16.70
2019,04,01,15,09,16.70
2019,04,01,15,10,16.60
2019,04,01,15,11,16.60
2019,04,01,15,12,16.60
2019,04,01,15,13,16.60
2019,04,01,15,14,16.60
2019,04,01,15,15,16.70
2019,04,01,15,16,16.70
2019,04,01,15,17,16.70
2019,04,01,15,18,16.70
2019,04,01,15,19,16.80
2019,04,01,15,20,16.80
2019,04,01,15,21,16.80
2019,04,01,15,22,16.70
2019,04,01,15,23,16.70
2019,04,01,15,24,16.70
2019,04,01,15,25,16.80
2019,04,01,15,26,16.80
2019,04,01,15,27,16.80
2019,04,01,15,28,16.80
2019,04,01,15,29,16.70
2019,04,01,15,30,16.70
2019,04,01,15,31,16.70
2019,04,01,15,32,16.70
2019,04,01,15,33,16.80
2019,04,01,15,34,16.80
2019,04,01,15,35,16.80
2019,04,01,15,36,16.80
2019,04,01,15,37,16.80
2019,04,01,15,38,16.80
2019,04,01,15,39,16.80
2019,04,01,15,40,16.90
2019,04,01,15,41,16.90
2019,04,01,15,42,17.00
2019,04,01,15,43,17.10
2019,04,01,15,44,17.10
2019,04,01,15,45,17.20
2019,04,01,15,46,17.30
2019,04,01,15,47,17.30
2019,04,01,15,48,17.30
2019,04,01,15,49,17.30
2019,04,01,15,50,17.30
2019,04,01,15,51,17.30
2019,04,01,15,52,17.30
2019,04,01,15,53,17.20
2019,04,01,15,54,17.20
2019,04,01,15,55,17.20
2019,04,01,15,56,17.20
2019,04,01,15,57,17.20
2019,04,01,15,58,17.20
2019,04,01,15,59,17.20
2019,04,01,16,00,17.20
2019,04,01,16,01,17.30
2019,04,01,16,02,17.30
2019,04,01,16,03,17.40
2019,04,01,16,04,17.50
2019,04,01,16,05,17.60
2019,04,01,16,06,17.60
2019,04,01,16,07,17.60
2019,04,01,16,08,17.60
2019,04,01,16,09,17.60
2019,04,01,16,10,17.60
2019,04,01,16,11,17.50
2019,04,01,16,12,17.50
2019,04,01,16,13,17.50
2019,04,01,16,14,17.50
2019,04,01,16,15,17.60
2019,04,01,16,16,17.60
2019,04,01,16,17,17.60
2019,04,01,16,18,17.60
2019,04,01,16,19,17.70
2019,04,01,16,20,17.70
2019,04,01,16,21,17.80
2019,04,01,16,22,17.90
2019,04,01,16,23,17.90
2019,04,01,16,24,17.90
2019,04,01,16,25,18.00
2019,04,01,16,26,18.00
2019,04,01,16,27,18.00
2019,04,01,16,28,17.90
2019,04,01,16,29,17.90
2019,04,01,16,30,17.90
2019,04,01,16,31,17.90
2019,04,01,16,32,17.90
2019,04,01,16,33,17.90
2019,04,01,16,34,17.90
2019,04,01,16,35,17.90
2019,04,01,16,36,17.90
2019,04,01,16,37,17.90
2019,04,01,16,38,17.90
2019,04,01,16,39,17.90
2019,04,01,16,40,17.90
2019,04,01,16,41,17.90
2019,04,01,16,42,17.90
2019,04,01,16,43,17.90
2019,04,01,16,44,17.90
2019,04,01,16,45,17.90
2019,04,01,16,46,17.80
2019,04,01,16,47,17.90
2019,04,01,16,48,17.80
2019,04,01,16,49,17.80
2019,04,01,16,50,17.80
2019,04,01,16,51,17.80
2019,04,01,16,52,17.80
2019,04,01,16,53,17.80
2019,04,01,16,54,17.80
2019,04,01,16,55,17.80
2019,04,01,16,56,17.80
2019,04,01,16,57,17.70
2019,04,01,16,58,17.70
2019,04,01,16,59,17.70
2019,04,01,17,00,17.70
2019,04,01,17,01,17.70
2019,04,01,17,02,17.70
2019,04,01,17,03,17.70
2019,04,01,17,04,17.80
2019,04,01,17,05,17.80
2019,04,01,17,06,17.80
2019,04,01,17,07,17.90
2019,04,01,17,08,17.90
2019,04,01,17,09,17.90
2019,04,01,17,10,17.90
2019,04,01,17,11,17.90
2019,04,01,17,12,17.90
2019,04,01,17,13,17.90
2019,04,01,17,14,17.90
2019,04,01,17,15,17.90
2019,04,01,17,16,17.90
2019,04,01,17,17,17.90
2019,04,01,17,18,18.00
2019,04,01,17,19,18.00
2019,04,01,17,20,18.00
2019,04,01,17,21,18.00
2019,04,01,17,22,18.00
2019,04,01,17,23,18.00
2019,04,01,17,24,17.90
2019,04,01,17,25,17.90
2019,04,01,17,26,17.90
2019,04,01,17,27,17.90
2019,04,01,17,28,17.90
2019,04,01,17,29,17.80
2019,04,01,17,30,17.80
2019,04,01,17,31,17.80
2019,04,01,17,32,17.70
2019,04,01,17,33,17.70
2019,04,01,17,34,17.70
2019,04,01,17,35,17.70
2019,04,01,17,36,17.70
2019,04,01,17,37,17.60
2019,04,01,17,38,17.60
2019,04,01,17,39,17.60
2019,04,01,17,40,17.70
2019,04,01,17,41,17.70